GW6813 Weather Reports


time (UTC)temp
F
wind
direction
speed
knots
gust
knots
rain 1hr
in
rain 24hr
in
rain mn
in
humidity
%
barometer
mb
20260502130313 44 248 0.0 1.7 0.00 0.00 0.00 61 1016.9
20260502123813 40 248 0.0 1.7 0.00 0.00 0.00 69 1016.9
20260502123313 39 180 0.0 1.7 0.00 0.00 0.00 72 1016.9
20260502122813 39 203 0.0 1.7 0.00 0.00 0.00 73 1016.9
20260502122313 38 203 0.0 1.7 0.00 0.00 0.00 75 1016.9
20260502121814 38 203 0.0 0.0 0.00 0.00 0.00 75 1016.9
20260502121313 37 203 0.0 0.0 0.00 0.00 0.00 75 1016.9
20260502120813 37 203 0.0 0.0 0.00 0.00 0.00 75 1016.9
20260502120314 37 225 0.0 0.0 0.00 0.00 0.00 73 1016.9
20260502115814 37 203 0.0 0.0 0.00 0.00 0.00 72 1016.9
20260502115313 37 203 0.0 0.0 0.00 0.00 0.00 72 1016.9
20260502114814 37 203 0.0 0.0 0.00 0.00 0.00 72 1016.9
20260502114317 37 203 0.0 0.0 0.00 0.00 0.00 73 1016.9
20260502113813 37 203 0.0 0.0 0.00 0.00 0.00 71 1016.9
20260502113313 37 203 0.0 0.0 0.00 0.00 0.00 71 1016.9
20260502112813 37 203 0.0 0.0 0.00 0.00 0.00 71 1016.9
20260502112313 37 203 0.0 0.0 0.00 0.00 0.00 73 1016.6
20260502111813 38 203 0.0 0.0 0.00 0.00 0.00 71 1016.6
20260502111314 38 203 0.0 0.0 0.00 0.00 0.00 71 1016.6
20260502110814 38 203 0.0 0.0 0.00 0.00 0.00 71 1016.6
20260502110314 38 203 0.0 0.0 0.00 0.00 0.00 70 1016.6
20260502105814 38 203 0.0 0.0 0.00 0.00 0.00 70 1016.6
20260502105314 38 203 0.0 0.0 0.00 0.00 0.00 69 1016.6
20260502104818 39 203 0.0 0.0 0.00 0.00 0.00 67 1016.6
20260502104314 39 203 0.0 0.0 0.00 0.00 0.00 66 1016.6
20260502103814 39 203 0.0 0.0 0.00 0.00 0.00 67 1016.6
20260502103314 39 203 0.0 0.0 0.00 0.00 0.00 66 1016.6
20260502102813 39 203 0.0 0.0 0.00 0.00 0.00 66 1016.6
20260502102313 39 203 0.0 0.0 0.00 0.00 0.00 66 1016.6
20260502101813 39 158 0.0 1.7 0.00 0.00 0.00 66 1016.6
20260502101313 39 158 0.0 1.7 0.00 0.00 0.00 66 1016.6
20260502100813 40 180 0.0 1.7 0.00 0.00 0.00 65 1016.6
20260502100315 40 180 0.0 1.7 0.00 0.00 0.00 65 1016.6
20260502091313 40 203 0.0 1.7 0.00 0.00 0.00 64 1016.3
20260502090813 40 203 0.0 1.7 0.00 0.00 0.00 64 1016.3
20260502090313 40 180 0.0 1.7 0.00 0.00 0.00 64 1016.3
20260502071313 43 180 0.9 3.5 0.00 0.00 0.00 59 1016.9
20260502070813 43 270 2.6 3.5 0.00 0.00 0.00 59 1016.9
20260502070314 43 90 0.0 3.5 0.00 0.00 0.00 59 1016.9
20260502065813 43 270 3.5 3.5 0.00 0.00 0.00 58 1016.9
20260502065313 44 135 0.0 3.5 0.00 0.00 0.00 59 1016.9
20260502064815 43 248 1.7 3.5 0.00 0.00 0.00 59 1016.9
20260502064313 43 270 1.7 3.5 0.00 0.00 0.00 60 1016.9
20260502063813 43 113 0.0 3.5 0.00 0.00 0.00 59 1016.9
20260502063314 43 158 0.0 3.5 0.00 0.00 0.00 60 1016.9
20260502062813 43 113 0.0 3.5 0.00 0.00 0.00 61 1016.9
20260502062315 42 225 1.7 1.7 0.00 0.00 0.00 62 1016.9
20260502061815 43 180 0.0 0.9 0.00 0.00 0.00 63 1016.9
20260502061314 43 180 0.9 0.9 0.00 0.00 0.00 65 1016.9
20260502060814 43 203 0.0 0.0 0.00 0.00 0.00 65 1016.9
20260502060313 43 203 0.0 0.0 0.00 0.00 0.00 65 1016.9
20260502055814 43 203 0.0 0.0 0.00 0.00 0.00 66 1016.9
20260502055313 43 203 0.0 0.0 0.00 0.00 0.00 64 1016.9
20260502054813 43 180 0.0 0.0 0.00 0.00 0.00 63 1017.3
20260502054313 43 180 0.0 0.0 0.00 0.00 0.00 66 1017.3
20260502053814 42 203 0.0 0.0 0.00 0.00 0.00 64 1017.3
20260502053313 42 225 0.0 0.0 0.00 0.00 0.00 66 1017.3
20260502052813 42 225 0.0 0.0 0.00 0.00 0.00 65 1017.3
20260502052314 42 203 0.0 0.0 0.00 0.00 0.00 64 1017.3
20260502051814 42 203 0.0 0.0 0.00 0.00 0.00 63 1017.3
20260502051313 42 203 0.0 0.0 0.00 0.00 0.00 60 1016.9
20260502050815 42 203 0.0 0.0 0.00 0.00 0.00 58 1016.9
20260502050315 42 203 0.0 0.0 0.00 0.00 0.00 58 1016.9
20260502045813 42 203 0.0 0.0 0.00 0.00 0.00 57 1016.9
20260502045313 42 203 0.0 0.0 0.00 0.00 0.00 58 1016.9
20260502044813 42 203 0.0 0.0 0.00 0.00 0.00 58 1016.9
20260502044314 43 203 0.0 0.0 0.00 0.00 0.00 55 1016.9
20260502043813 43 203 0.0 0.0 0.00 0.00 0.00 55 1016.9
20260502043314 43 203 0.0 0.0 0.00 0.00 0.00 55 1016.9
20260502042814 43 203 0.0 0.0 0.00 0.00 0.00 56 1016.9
20260502042313 44 203 0.0 0.0 0.00 0.00 0.00 54 1016.9
20260502041814 44 203 0.0 0.0 0.00 0.00 0.00 56 1016.9
20260502041314 44 203 0.0 0.0 0.00 0.00 0.00 55 1016.9
20260502040813 44 203 0.0 0.0 0.00 0.00 0.00 54 1016.9
20260502040314 44 203 0.0 0.0 0.00 0.00 0.00 53 1016.9
20260502035814 44 203 0.0 0.0 0.00 0.00 0.00 53 1016.9
20260502035313 45 203 0.0 0.0 0.00 0.00 0.00 52 1016.9
20260502034813 45 203 0.0 0.0 0.00 0.00 0.00 55 1016.9
20260502034314 45 203 0.0 0.0 0.00 0.00 0.00 52 1016.9
20260502033814 45 203 0.0 0.0 0.00 0.00 0.00 53 1016.9
20260502033318 45 203 0.0 0.0 0.00 0.00 0.00 53 1017.3
20260502032813 46 225 0.0 0.0 0.00 0.00 0.00 51 1017.3
20260502032314 46 203 0.0 0.0 0.00 0.00 0.00 49 1017.3
20260502031814 46 203 0.0 0.9 0.00 0.00 0.00 48 1017.3
20260502031314 47 203 0.0 0.9 0.00 0.00 0.00 47 1016.9
20260502030813 47 203 0.0 0.9 0.00 0.00 0.00 48 1016.9
20260502030314 47 203 0.0 0.9 0.00 0.00 0.00 45 1016.9
20260502025813 48 203 0.0 0.9 0.00 0.00 0.00 47 1016.9
20260502025314 48 203 0.0 0.9 0.00 0.00 0.00 43 1016.9
20260502024813 48 180 0.0 1.7 0.00 0.00 0.00 42 1016.9
20260502024313 48 180 0.0 1.7 0.00 0.00 0.00 41 1016.9
20260502023813 49 113 0.0 2.6 0.00 0.00 0.00 41 1016.9
20260502023314 49 113 0.0 2.6 0.00 0.00 0.00 40 1016.9
20260502022813 49 113 0.0 2.6 0.00 0.00 0.00 40 1016.9
20260502022313 50 113 0.0 2.6 0.00 0.00 0.00 39 1016.9
20260502021813 50 135 0.9 2.6 0.00 0.00 0.00 38 1016.9
20260502021313 50 203 0.0 2.6 0.00 0.00 0.00 38 1016.6
20260502020814 51 180 0.0 2.6 0.00 0.00 0.00 36 1016.6
20260502020313 51 158 0.0 2.6 0.00 0.00 0.00 36 1016.6
20260502015813 51 203 0.0 2.6 0.00 0.00 0.00 36 1016.6
20260502015314 51 113 0.0 2.6 0.00 0.00 0.00 33 1016.6
20260502014813 51 203 0.0 2.6 0.00 0.00 0.00 33 1016.3
20260502014313 52 158 0.0 2.6 0.00 0.00 0.00 32 1016.3